sat.trackr.live / text

‹ back to catalog

STARLINK-32303

NORAD 61912 · 2024-207A

PAYLOAD ACTIVE UNKNOWN

§ Identity

Operator
Country
US
Launch date
2024-11-11
Launch site
AFETR
Launch vehicle
Mass (kg)
RCS (m²)

Purposes: comms

External: N2YO · Heavens-Above · Gunter

§ Orbital elements

Epoch: 2026-05-24T20:54:57.699360Z

Period
94.27 min
Inclination
42.9965°
Eccentricity
0.0000305
Mean motion
15.27582815 rev/d
Perigee alt
482.8 km
Apogee alt
483.2 km
Semi-major
6,861.2 km
B*
1.7510e-4
RAAN
211.4581°
Arg perigee
308.6104°
Mean anomaly
51.4721°
Rev number
8,696

§ Raw data

STARLINK-323031 61912U 24207A   26144.87150115  .00004560  00000+0  17510-3 0  99902 61912  42.9965 211.4581 0000305 308.6104  51.4721 15.27582815 86961

JSON: /api/v1/satellites/61912 · /tle

For live sub-satellite position, see the globe view (requires WebGL).

§ Visibility from observer

Set your observer location to see the next 7 days of passes ≥ 10°. The values pass through the URL so the page stays shareable.

No JS? Fill the form by hand. The geolocation button needs JavaScript.